Regional Weather Roundup
Issued by NWS

Home | Current Version | Previous Version | Text Only | Print | Product List | Glossary Off
Versions: 1 2 3 4 5 6 7 8 9 10 11 12 13 14 15 16 17 18 19 20 21 22 23 24 25 26 27 28 29 30 31 32 33 34 35 36 37 38 39 40 41 42 43 44 45 46 47 48 49 50

173
ASUS44 KMEG 012000
RWRTN
TENNESSEE HOURLY STATE WEATHER ROUNDUP
NATIONAL WEATHER SERVICE MEMPHIS TN
300 PM CDT SUN MAY 01 2016

TNZ002-004-019-021-049-052-054-088>092-012100-
WEST TENNESSEE

CITY           SKY/WX    TMP DP  RH WIND       PRES   REMARKS
MEMPHIS INTL   LGT RAIN  76  68  76 S13G22    29.92S
NWS MEMPHIS      N/A     76 N/A N/A MISG        N/A
JACKSON        TSTM      76  67  73 S8        29.92R
DYERSBURG      PTSUNNY   77  66  69 W8          N/A
UNION CITY     PTSUNNY   77  68  73 S3        29.91S
LEXINGTON      MOSUNNY   79  64  61 S9        29.91F
$$

TNZ008-025-027-028-033-062-065-066-012100-
NORTH MIDDLE TENNESSEE

CITY           SKY/WX    TMP DP  RH WIND       PRES   REMARKS
NASHVILLE      CLOUDY    82  62  50 SW7       29.93F
CLARKSVILLE    PTSUNNY   76  63  64 SW5       29.93R
CROSSVILLE     CLOUDY    79  60  52 W6        29.99F
$$

TNZ061-075-076-078-094-096-097-012100-
SOUTH MIDDLE TENNESSEE

CITY           SKY/WX    TMP DP  RH WIND       PRES   REMARKS
TULLAHOMA      MOSUNNY   75  66  73 S7        29.98F
SHELBYVILLE    MOSUNNY   79  66  65 SW9       29.96F
$$

TNZ017-018-042-046-047-012100-
NORTHEAST TENNESSEE

CITY           SKY/WX    TMP DP  RH WIND       PRES   REMARKS
TRI CITIES     PTSUNNY   79  62  56 W9        30.00F
$$

TNZ012-013-036-069-073-074-012100-
CENTRAL EAST TENNESSEE

CITY           SKY/WX    TMP DP  RH WIND       PRES   REMARKS
KNOXVILLE      CLOUDY    81  64  56 SW14      29.96F
OAK RIDGE      CLOUDY    81  62  52 VRB6      29.96F
$$

TNZ083-085-099-012100-
SOUTHEAST TENNESSEE

CITY           SKY/WX    TMP DP  RH WIND       PRES   REMARKS
CHATTANOOGA    PTSUNNY   81  64  56 SW13      29.97F
$$

SKY/WX REPORTED AS FAIR MEANS FEW OR NO CLOUDS BELOW
12 THOUSAND FEET.





USA.gov is the U.S. government's official web portal to all federal, state and local government web resources and services.